User: anonymous   Login
Location: Unspecified
(0.0000°N, 0.0000°E)
Time: 03:11:28
(UTC+00:00)
Language:

NOSS 2-2 (E) - Orbit

View from above orbital plane
View from above orbital plane
View from above satellite
View from above satellite

Ground track
Ground track

The orbit data is extracted from the following two-line orbital elements,

1 21809U 91076E   15083.83605831 0.00000450  00000-0  20327-3 0    03
2 21809  63.3680  41.8199 0677000  14.1345 345.8655 13.41082332    01
Epoch (UTC): 24 March 2015 20:03:55
Eccentricity: 0.0677000
inclination: 63.3680°
perigee height: 598 km
apogee height: 1612 km
right ascension of ascending node: 41.8199°
argument of perigee: 14.1345°
revolutions per day: 13.41082332
mean anomaly at epoch: 345.8655°
orbit number at epoch: 0

The dashed part of the orbit path shows where the satellite is in the earth's shadow,  

DLR